Regional Weather Roundup
Issued by NWS

Home | Current Version | Previous Version | Text Only | Print | Product List | Glossary On
Versions: 1 2 3 4 5 6 7 8 9 10 11 12 13 14 15 16 17 18 19 20 21 22 23 24 25 26 27 28 29 30 31 32 33 34 35 36 37 38 39 40 41 42 43 44 45 46 47 48 49 50
000
ASUS43 KMKX 271811
RWRWI

WISCONSIN REGIONAL WEATHER ROUNDUP
NATIONAL WEATHER SERVICE MILWAUKEE/SULLIVAN WI
1200 PM CST THU NOV 27 2014

NOTE: "FAIR" INDICATES FEW OR NO CLOUDS BELOW 12,000 FEET WITH NO
SIGNIFICANT WEATHER AND/OR OBSTRUCTIONS TO VISIBILITY.

WIZ001-002-006>008-014>016-023>028-271900-
NORTHWEST WISCONSIN

CITY           SKY/WX    TMP DP  RH WIND       PRES   REMARKS
SUPERIOR ARPT  SUNNY      7  -5  57 CALM      30.48F
6HR MIN TEMP:  -7; 6HR MAX TEMP:   7;

ASHLAND        PTSUNNY    9  -1  64 SW6       30.44F WCI  -1
6HR MIN TEMP:  -2; 6HR MAX TEMP:  10; 6HR PCP: TRACE;

HAYWARD        SUNNY      4  -3  73 CALM      30.41F
6HR MIN TEMP:  -6; 6HR MAX TEMP:   5;

SIREN          SUNNY      6  -6  55 CALM      30.45F
6HR MIN TEMP:  -8; 6HR MAX TEMP:   6;

CUMBERLAND     SUNNY      5  -6  61 CALM      30.41F
RICE LAKE      SUNNY      5  -5  62 CALM      30.45F
6HR MIN TEMP:  -3; 6HR MAX TEMP:   5;

CHETEK         SUNNY      6  -4  63 W3        30.43F
6HR MIN TEMP:  -3; 6HR MAX TEMP:   6;

LADYSMITH      SUNNY      8  -1  67 W5        30.41F WCI   0
6HR MIN TEMP:  -3; 6HR MAX TEMP:   8;

EAU CLAIRE     SUNNY      6  -3  66 SW7       30.45F WCI  -6
6HR MIN TEMP:  -2; 6HR MAX TEMP:   6;

MENOMONIE      SUNNY      8  -4  59 W7        30.46F WCI  -4
6HR MIN TEMP:  -1; 6HR MAX TEMP:   8;

NEW RICHMOND   SUNNY      6  -5  61 NW3       30.47F
6HR MIN TEMP:  -3; 6HR MAX TEMP:   6;

OSCEOLA        SUNNY      5  -5  62 NW5       30.51F WCI  -4
6HR MIN TEMP:  -3; 6HR MAX TEMP:   6;

$$

WIZ003>005-009-010-017-018-271900-
NORTH CENTRAL WISCONSIN

CITY           SKY/WX    TMP DP  RH WIND       PRES   REMARKS
MANITOWISH WTR CLOUDY     9   2  72 NW12      30.30F WCI  -6
6HR MIN TEMP:  -4; 6HR MAX TEMP:   9;

ARBOR VITAE    PTSUNNY   11   4  72 NW8       30.30F WCI   0
6HR MIN TEMP:   3; 6HR MAX TEMP:  11;

WOODRUFF       PTSUNNY   11   4  72 NW8       30.30F WCI   0
6HR MIN TEMP:   3; 6HR MAX TEMP:  11;

RHINELANDER    CLOUDY    10   1  67 N7        30.30F WCI  -1
6HR MIN TEMP:  -1; 6HR MAX TEMP:  10;

EAGLE RIVER    PTSUNNY   10  -1  60 N15       30.29F WCI  -6
6HR MIN TEMP:  -3; 6HR MAX TEMP:  10;

LAND O LAKES   CLOUDY    10   1  65 N7        30.29F WCI  -1
6HR MIN TEMP:  -1; 6HR MAX TEMP:  10;

PHILLIPS       MOSUNNY    8   0  68 N6        30.35S WCI  -2
6HR MIN TEMP:  -3; 6HR MAX TEMP:   8;

TOMAHAWK       PTSUNNY   10   2  70 CALM      30.33F
6HR MIN TEMP:   1; 6HR MAX TEMP:  10;

MEDFORD        SUNNY      9   0  67 N5        30.33F WCI   0
6HR MIN TEMP:   3; 6HR MAX TEMP:   9;

MERRILL        MOSUNNY   12   1  62 N6        30.33F WCI   3
6HR MIN TEMP:   6; 6HR MAX TEMP:  12;

$$

WIZ029-030-035-036-043>047-271900-
CENTRAL WISCONSIN

CITY           SKY/WX    TMP DP  RH WIND       PRES   REMARKS
WAUSAU         SUNNY     11   2  67 NW9       30.33F WCI  -2
6HR MIN TEMP:   8; 6HR MAX TEMP:  12; 6HR PCP: TRACE;

MOSINEE        MOSUNNY   12   7  79 NW8       30.35F WCI   1
MARSHFIELD     SUNNY     10   1  67 NW9       30.36F WCI  -3
6HR MIN TEMP:   6; 6HR MAX TEMP:  12; 6HR PCP: TRACE;

STEVENS POINT  MOSUNNY   12   4  70 NW7       30.35F WCI   2
6HR MIN TEMP:  10; 6HR MAX TEMP:  12;

WAUPACA        MOSUNNY   20   8  59 NW8       30.37S WCI  10
6HR MIN TEMP:  17; 6HR MAX TEMP:  20;

WAUTOMA        SUNNY     16   7  67 NW7       30.38S WCI   6
6HR MIN TEMP:  15; 6HR MAX TEMP:  17;

WISC RAPIDS    SUNNY     12   2  64 NW10      30.39F WCI  -1
6HR MIN TEMP:  10; 6HR MAX TEMP:  15; 6HR PCP: TRACE;

CAMP DOUGLAS   SUNNY     12   5  73 NW10      30.40F WCI  -1
6HR MIN TEMP:   9; 6HR MAX TEMP:  16; 6HR PCP: TRACE;

$$

WIZ011>013-019>022-031-037>040-048>050-271900-
NORTHEAST WISCONSIN

CITY           SKY/WX    TMP DP  RH WIND       PRES   REMARKS
ANTIGO         SUNNY     11   1  64 N9        30.29F WCI  -2
6HR MIN TEMP:   3; 6HR MAX TEMP:  11;

SHAWANO        MOSUNNY   19   6  59 NW12      30.35F WCI   6
6HR MIN TEMP:  15; 6HR MAX TEMP:  20;

OCONTO         SUNNY     17   3  54 NW7       30.35S WCI   7
6HR MIN TEMP:  13; 6HR MAX TEMP:  17;

STURGEON BAY   PTSUNNY   18   3  53 NW13      30.32S WCI   4
6HR MIN TEMP:  16; 6HR MAX TEMP:  21;

GREEN BAY      SUNNY     17   6  62 NW10      30.35S WCI   5
6HR MIN TEMP:  16; 6HR MAX TEMP:  20; 6HR PCP: TRACE;

MANITOWOC      PTSUNNY   19   9  65 N10       30.34S WCI   7
6HR MIN TEMP:  18; 6HR MAX TEMP:  22;

APPLETON       PTSUNNY   16   7  67 NW10      30.35S WCI   3
CLINTONVILLE   SUNNY     18   5  57 N10       30.35F WCI   6
OSHKOSH        SUNNY     17   6  62 MISG      30.35S
6HR MIN TEMP:  16; 6HR MAX TEMP:  20; 6HR PCP: TRACE;

$$

WIZ032>034-041-042-053>061-271900-
SOUTHWEST WISCONSIN

CITY           SKY/WX    TMP DP  RH WIND       PRES   REMARKS
LA CROSSE      SUNNY     12   0  58 N9        30.48F WCI   0
6HR MIN TEMP:   8; 6HR MAX TEMP:  14;

SPARTA         SUNNY     12   2  64 NW5       30.44F WCI   4
6HR MIN TEMP:   7; 6HR MAX TEMP:  15;

VIROQUA        SUNNY     11   1  63 N7        30.38F WCI   1
6HR MIN TEMP:   9; 6HR MAX TEMP:  16;

BOSCOBEL       SUNNY     18   3  52 NW12      30.43F WCI   5
6HR MIN TEMP:  17; 6HR MAX TEMP:  21; 6HR PCP: TRACE;

PRAIRIE DU CHI SUNNY     15   0  52 NW8       30.45F WCI   4
6HR MIN TEMP:  13; 6HR MAX TEMP:  20;

PLATTEVILLE    SUNNY     18   9  67 NW10      30.38F WCI   6
6HR MIN TEMP:  18; 6HR MAX TEMP:  24;

$$

WIZ056-057-062-063-064-067-068-271900-
SOUTH CENTRAL WISCONSIN

CITY           SKY/WX    TMP DP  RH WIND       PRES   REMARKS
REEDSBURG      SUNNY     14   6  71 W9        30.39S WCI   2
6HR MIN TEMP:  13; 6HR MAX TEMP:  18;

BARABOO/DELLS  SUNNY     15   7  69 W8        30.37F WCI   4
6HR MIN TEMP:  14; 6HR MAX TEMP:  17;

LONE ROCK      SUNNY     21   7  54 W13       30.40F WCI   9
6HR MIN TEMP:  20; 6HR MAX TEMP:  24; 6HR PCP: TRACE;

MINERAL POINT  SUNNY     21  10  63 NW10      30.36F WCI  10
MADISON        PTSUNNY   20  11  68 NW9       30.37F WCI   9
6HR MIN TEMP:  18; 6HR MAX TEMP:  22; 6HR PCP: TRACE;

MIDDLETON      PTSUNNY   22  10  60 NW8       30.37S WCI  13
6HR MIN TEMP:  20; 6HR MAX TEMP:  24;

WATERTOWN      CLOUDY    19  13  76 N12       30.35S WCI   6
6HR MIN TEMP:  17; 6HR MAX TEMP:  21;

MONROE         FLURRIES  23  18  80 NW5       30.34F WCI  17
JANESVILLE     PTSUNNY   23  14  68 NW15      30.35F WCI  10
$$

WIZ051-052-058>065-066-070>072-271900-
SOUTHEAST WISCONSIN

CITY           SKY/WX    TMP DP  RH WIND       PRES   REMARKS
MILWAUKEE      CLOUDY    23  14  68 NW8       30.33S WCI  14
6HR MIN TEMP:  22; 6HR MAX TEMP:  24; 6HR PCP: TRACE;

WAUKESHA       CLOUDY    18  12  79 NW12      30.34S WCI   5
MILWAUKEE/TIMM CLOUDY    21  12  68 NW16      30.33F WCI   7
RACINE         PTSUNNY   22  14  71 NW13      30.34S WCI  10
6HR MIN TEMP:  22; 6HR MAX TEMP:  24;

BURLINGTON     CLOUDY    19  13  78 NW14      30.34S WCI   6
6HR MIN TEMP:  19; 6HR MAX TEMP:  20;

KENOSHA        PTSUNNY   22  15  75 NW12      30.33R WCI  10
6HR MIN TEMP:  22; 6HR MAX TEMP:  24;

FOND DU LAC    MOSUNNY   17   7  64 NW15      30.35S WCI   2
6HR MIN TEMP:  17; 6HR MAX TEMP:  21; 6HR PCP: TRACE;

SHEBOYGAN      MOSUNNY   18   8  65 NW10      30.33F WCI   6
6HR MIN TEMP:  17; 6HR MAX TEMP:  22; 6HR PCP: TRACE;

WEST BEND      CLOUDY    21  10  63 NW14      30.32F WCI   8
JUNEAU         PTSUNNY   18  11  74 NW13      30.35S WCI   4
6HR MIN TEMP:  15; 6HR MAX TEMP:  20;

$$

LSZ147-162-271900-
LAKE SUPERIOR

STATION/POSITION TIME  TEMP    WIND        PRES    WAVE
                       AIR SEA DIR/SP/G            HT/PER
                 (UTC) (F)     (DEG/KT/KT) (MB)    (FT/S)
DEVILS ISLAND    1800   10     320/  7/ 10 1032.2F
PORT WING        1740    7     200/  7/  9 1031.2F
SAXON HARBOR     1740   12     310/  8/ 11 1030.1F
$$

LMZ867-665-643>646-271900-
LAKE MICHIGAN

STATION/POSITION TIME  TEMP    WIND        PRES    WAVE


USA.gov is the U.S. government's official web portal to all federal, state and local government web resources and services.